This is the latest recevied weather packets stored in our database for station/object R1CBW-13. If no packets are shown the sender has not sent any weather packets the latest 1 day(s).
| Time | Temp. | Humidity | Pressure | Rain* | Wind** | Luminosity | Snow |
|---|---|---|---|---|---|---|---|
| 1778061752 | 10.56° C | 36% | 1011.4 hPa | 0 mm | - | - | - |
| 1778061692 | 10.56° C | 36% | 1011.4 hPa | 0 mm | - | - | - |
| 1778061632 | 10° C | 36% | 1011.5 hPa | 0 mm | - | - | - |
| 1778061572 | 10° C | 36% | 1011.4 hPa | 0 mm | - | - | - |
| 1778061512 | 10.56° C | 36% | 1011.3 hPa | 0 mm | - | - | - |
| 1778061452 | 10.56° C | 36% | 1011.4 hPa | 0 mm | - | - | - |
| 1778061392 | 10° C | 37% | 1011.4 hPa | 0 mm | - | - | - |
| 1778060431 | 8.89° C | 40% | 1011.3 hPa | 0 mm | - | - | - |
| 1778060311 | 8.89° C | 40% | 1011.3 hPa | 0 mm | - | - | - |
| 1778059711 | 8.89° C | 41% | 1011 hPa | 0 mm | - | - | - |
| 1778059531 | 8.89° C | 42% | 1011.1 hPa | 0 mm | - | - | - |
| 1778059291 | 8.33° C | 41% | 1011 hPa | 0 mm | - | - | - |
| 1778059171 | 8.33° C | 42% | 1011 hPa | 0 mm | - | - | - |
| 1778059111 | 8.89° C | 41% | 1011.1 hPa | 0 mm | - | - | - |
| 1778059051 | 8.89° C | 40% | 1010.9 hPa | 0 mm | - | - | - |
| 1778058991 | 8.89° C | 40% | 1010.8 hPa | 0 mm | - | - | - |
| 1778058931 | 8.89° C | 39% | 1010.9 hPa | 0 mm | - | - | - |
| 1778058871 | 8.89° C | 40% | 1010.9 hPa | 0 mm | - | - | - |
| 1778058811 | 8.89° C | 41% | 1010.9 hPa | 0 mm | - | - | - |
| 1778058751 | 8.89° C | 40% | 1010.9 hPa | 0 mm | - | - | - |
| 1778058691 | 8.33° C | 41% | 1010.9 hPa | 0 mm | - | - | - |
| 1778058631 | 7.78° C | 41% | 1010.9 hPa | 0 mm | - | - | - |
| 1778058571 | 8.33° C | 41% | 1011.2 hPa | 0 mm | - | - | - |
| 1778058511 | 8.33° C | 41% | 1011 hPa | 0 mm | - | - | - |
| 1778058451 | 8.89° C | 40% | 1010.9 hPa | 0 mm | - | - | - |
* Rain latest hour (hover to see other rain measurements)
** Current wind speed in m/s (hover to see current wind gust speed)